Regional Weather Roundup
Issued by NWS

Home | Current Version | Previous Version | Graphics & Text | Print | Product List | Glossary On
Versions: 1 2 3 4 5 6 7 8 9 10 11 12 13 14 15 16 17 18 19 20 21 22 23 24 25 26 27 28 29 30 31 32 33 34 35 36 37 38 39 40 41 42 43 44 45 46 47 48 49 50
000
ASUS43 KIND 270009
RWRIN

WEATHER ROUNDUP FOR INDIANA
NATIONAL WEATHER SERVICE INDIANAPOLIS IN
800 PM EDT THU MAY 26 2016

NOTE: "FAIR" INDICATES FEW OR NO CLOUDS BELOW 12,000 FEET WITH NO
SIGNIFICANT WEATHER AND/OR OBSTRUCTIONS TO VISIBILITY.

* - STATION DOES NOT REPORT WEATHER SUCH AS PRECIPITATION OR FOG.

+ - STATION NOT QUALITY CONTROLLED BY THE NATIONAL WEATHER SERVICE.
    USE DATA WITH CAUTION...ESPECIALLY DEWPOINT AND RELATIVE
    HUMIDITY OBSERVATIONS.

INZ001>003-010>013-019-020-270100-
NORTHWEST INDIANA

CITY           SKY/WX    TMP DP  RH WIND       PRES   REMARKS
GARY /AIRPORT/ PTSUNNY   84  68  58 SW7       29.84S
KNOX *+          N/A     79  50  36 S10         N/A
LA PORTE +     SUNNY     82  61  48 S9        29.87R
6HR MIN TEMP:  78; 6HR MAX TEMP:  85;

MICHIGAN CITY+ SUNNY     79  61  53 W6        29.86R
MONTICELLO +   PTSUNNY   77  61  56 S7        29.88S
6HR MIN TEMP:  70; 6HR MAX TEMP:  81;

VALPARAISO     SUNNY     82  61  48 S10       29.87R
6HR MIN TEMP:  78; 6HR MAX TEMP:  83;


$$

LMZ046-743>745-270100-
SOUTHERN LAKE MICHIGAN

STATION/POSITION TIME  TEMP    WIND        PRES    WAVE
                       AIR SEA DIR/SP/G            HT
                 (UTC) (F)     (DEG/KT/KT) (MB)    (FT)
BURNS HARBOR     2300   80     190/ 10/ 13 1010.5F
MICHIGAN CITY    2300   73     350/  3/  3   N/A
5NW MICH CITY    0000   66 62   60/  2/  4   N/A     1

$$

INZ004-005-014>016-021>024-270100-
NORTH CENTRAL INDIANA

CITY           SKY/WX    TMP DP  RH WIND       PRES   REMARKS
ELKHART        SUNNY     81  66  61 S6        29.87F
GOSHEN         SUNNY     79  58  48 SW14      29.88S
6HR MIN TEMP:  76; 6HR MAX TEMP:  82;

LOGANSPORT +   PTSUNNY   77  59  53 SW10      29.89S
PERU/GRISSOM   PTSUNNY   78  62  58 S14       29.88F
6HR MIN TEMP:  73; 6HR MAX TEMP:  83;

ROCHESTER +    MOSUNNY   81  61  50 SW8       29.89S
SOUTH BEND     SUNNY     80  61  52 S12       29.88R
6HR MIN TEMP:  76; 6HR MAX TEMP:  84;

WARSAW +       MOSUNNY   79  59  50 SW3       29.89S

$$

INZ006>009-017-018-025>027-270100-
NORTHEAST INDIANA

CITY           SKY/WX    TMP DP  RH WIND       PRES   REMARKS
AUBURN +       CLOUDY    81  57  44 SW3       29.89F
FORT WAYNE     MOCLDY    79  63  57 S17       29.89F
6HR MIN TEMP:  78; 6HR MAX TEMP:  82;

HUNTINGTON +   CLOUDY    78  61  55 S9G16     29.90S

$$

INZ028-029-035-036-043>045-051>053-270100-
WEST CENTRAL INDIANA

CITY           SKY/WX    TMP DP  RH WIND       PRES   REMARKS
LAFAYETTE      PTSUNNY   75  63  66 S6        29.88S
6HR MIN TEMP:  71; 6HR MAX TEMP:  80;

TERRE HAUTE    PTSUNNY   73  64  73 S12G21    29.93R
6HR MIN TEMP:  71; 6HR MAX TEMP:  79;


$$

INZ030>032-037>040-046>048-054>057-064-065-270100-
CENTRAL INDIANA

CITY           SKY/WX    TMP DP  RH WIND       PRES   REMARKS
CP ATTERBURY + MOCLDY    70  63  78 S8        29.95S
COLUMBUS       MOCLDY    72  66  83 S13       29.95F
FRANKFORT +      N/A     77  51  39 CALM      29.91F
6HR MIN TEMP:  70; 6HR MAX TEMP:  83;

GREENWOOD *+   PTSUNNY   72  63  73 S10       29.95F
INDIANAPOLIS   CLOUDY    73  65  75 S12       29.91F
6HR MIN TEMP:  68; 6HR MAX TEMP:  77; 6HR PCP: TRACE;

-EAGLE CREEK   PTSUNNY   75  63  66 S8        29.91F
6HR MIN TEMP:  69; 6HR MAX TEMP:  78; 6HR PCP: TRACE;

KOKOMO *+      MOSUNNY   77  61  57 S14       29.90S
6HR MIN TEMP:  73; 6HR MAX TEMP:  82;

MARION +       PTSUNNY   76  62  60 S13       29.92S
SHELBYVILLE    CLOUDY    74  63  68 S14       29.93F
6HR MIN TEMP:  70; 6HR MAX TEMP:  78; 6HR PCP:  0.01;

ZIONSVILLE +   PTSUNNY   73  64  72 S12       29.93S
6HR MIN TEMP:  68; 6HR MAX TEMP:  78;


$$

INZ033-034-041-042-049-050-058-059-270100-
EAST CENTRAL INDIANA

CITY           SKY/WX    TMP DP  RH WIND       PRES   REMARKS
MUNCIE         CLOUDY    78  61  55 S10       29.92F
6HR MIN TEMP:  73; 6HR MAX TEMP:  81;


$$

INZ060-061-067>069-081>083-085>088-270100-
SOUTHWEST INDIANA

CITY           SKY/WX    TMP DP  RH WIND       PRES   REMARKS
EVANSVILLE     CLOUDY    70  64  81 E5        29.92R
6HR MIN TEMP:  67; 6HR MAX TEMP:  71; 6HR PCP:  0.04;

HUNTINGBURG *+ CLOUDY    70  63  78 S8        29.94F
6HR MIN TEMP:  66; 6HR MAX TEMP:  70;

WASHINGTON +   CLOUDY    70  66  86 S10G16    29.93F
6HR MIN TEMP:  67; 6HR MAX TEMP:  73;


$$

INZ062-063-066-070>080-084-089>092-270100-
SOUTH CENTRAL AND SOUTHEAST INDIANA

CITY           SKY/WX    TMP DP  RH WIND       PRES   REMARKS
BLOOMINGTON    PTSUNNY   72  63  73 S6        29.95S
6HR MIN TEMP:  66; 6HR MAX TEMP:  75; 6HR PCP: TRACE;

MADISON *+     PTCLDY    68  64  88 S9        30.01S
SEYMOUR +      CLOUDY    72  64  78 S8        29.96F

$$





USA.gov is the U.S. government's official web portal to all federal, state and local government web resources and services.